Tucson, AZ

10:00 PM MST on April 27, 2017 (GMT -0700)
Tucson International

Weather History for KTUS - November, 2011

Change the Weather History Date:

Thursday, November 24, 2011

  Actual Average Record
Temperature  
Mean Temperature 62 °F 56 °F  
Max Temperature 76 °F 70 °F 86 °F (1981)
Min Temperature 48 °F 43 °F 28 °F (1979)
Degree Days  
Heating Degree Days 3 9  
Month to date heating degree days 139 125  
Since 1 July heating degree days 153 149  
Cooling Degree Days 0 0  
Month to date cooling degree days 8 25  
Year to date cooling degree days 3455 3144  
Growing Degree Days 12 (Base 50)    
Moisture  
Dew Point 36 °F    
Average Humidity 39    
Maximum Humidity 64    
Minimum Humidity 13    
Precipitation  
Precipitation 0.05 in 0.03 in 0.91 in (1895)
Month to date precipitation 0.88 0.43  
Year to date precipitation 10.11 10.52  
Snow  
Snow 0.00 in - - ()
Month to date snowfall 0.0  
Snow Depth 0.00 in    
Sea Level Pressure  
Sea Level Pressure 29.95 in    
Wind  
Wind Speed 6 mph (South)    
Max Wind Speed 20 mph    
Max Gust Speed 24 mph    
Visibility 10 miles    
Events Rain    
T = Trace of Precipitation, MM = Missing Value Source: NWS Daily Summary

Daily Weather History Graph

Daily Weather History Graph

Search for Another Location

Airport or City:

Trip Planner

Search our weather history database for the weather conditions in past years. The results will help you decide how hot, cold, wet, or windy it might be!

Date:

Astronomy

Nov. 24, 2011 Rise Set
Actual Time 7:00 AM MST 5:20 PM MST
Civil Twilight 6:34 AM MST 5:46 PM MST
Nautical Twilight 6:04 AM MST 6:16 PM MST
Astronomical Twilight 5:34 AM MST 6:45 PM MST
Moon 6:21 AM MST (11/24) 4:56 PM MST (11/24)
Length of Visible Light 11h 12m
Length of Day
10h 19m
Waning Crescent, 0% of the Moon is Illuminated
Nov 24
Waning Crescent
Nov 24
New
Dec 2
First Quarter
Dec 10
Full
Dec 17
Last Quarter

Hourly Weather History & Observations

Time (MST) Temp. Dew Point Humidity Pressure Visibility Wind Dir Wind Speed Gust Speed Precip Events Conditions
12:53 AM 54.0 °F 28.0 °F 37% 29.96 in 10.0 mi SSE 3.5 mph - N/A   Clear
1:53 AM 53.1 °F 28.9 °F 40% 29.95 in 10.0 mi Calm Calm - N/A   Clear
2:53 AM 50.0 °F 30.9 °F 48% 29.95 in 10.0 mi SSE 4.6 mph - N/A   Clear
3:53 AM 48.0 °F 30.0 °F 50% 29.94 in 10.0 mi SSE 8.1 mph - N/A   Clear
4:53 AM 51.1 °F 30.0 °F 44% 29.94 in 10.0 mi SSE 5.8 mph - N/A   Clear
5:53 AM 50.0 °F 30.2 °F 47% 30.03 in 10.0 mi South 4.6 mph - N/A   Clear
6:53 AM 53.1 °F 28.9 °F 40% 29.95 in 10.0 mi SE 8.1 mph - N/A   Clear
7:53 AM 50.0 °F 30.9 °F 48% 29.99 in 10.0 mi South 6.9 mph - N/A   Clear
8:53 AM 54.0 °F 32.0 °F 43% 30.01 in 10.0 mi SE 3.5 mph - N/A   Clear
9:53 AM 66.9 °F 28.0 °F 23% 29.99 in 10.0 mi ESE 4.6 mph - N/A   Scattered Clouds
10:53 AM 72.0 °F 21.9 °F 15% 29.96 in 10.0 mi Calm Calm - N/A   Mostly Cloudy
11:53 AM 75.0 °F 21.0 °F 13% 29.93 in 10.0 mi NE 3.5 mph - N/A   Partly Cloudy
12:53 PM 75.2 °F 24.8 °F 15% 29.99 in 10.0 mi Calm Calm - N/A   Clear
1:53 PM 73.9 °F 35.1 °F 24% 29.88 in 10.0 mi West 5.8 mph - N/A   Partly Cloudy
2:18 PM 75.2 °F 42.8 °F 31% 29.95 in 10.0 mi South 15.0 mph - N/A   Clear
2:53 PM 73.9 °F 46.0 °F 37% 29.85 in 10.0 mi South 18.4 mph - N/A   Clear
3:53 PM 72.0 °F 48.0 °F 43% 29.85 in 10.0 mi South 12.7 mph - N/A   Clear
4:53 PM 66.9 °F 36.0 °F 32% 29.86 in 10.0 mi North 9.2 mph - N/A   Mostly Cloudy
5:53 PM 64.4 °F 35.6 °F 34% 29.95 in 10.0 mi Calm Calm - N/A   Mostly Cloudy
6:53 PM 63.0 °F 37.0 °F 38% 29.89 in 10.0 mi WNW 10.4 mph - N/A   Mostly Cloudy
7:53 PM 60.1 °F 48.0 °F 64% 29.95 in 10.0 mi NW 12.7 mph 21.9 mph N/A   Overcast
8:53 PM 60.8 °F 48.2 °F 63% 30.01 in 10.0 mi NW 3.5 mph - N/A   Overcast
9:53 PM 59.0 °F 46.9 °F 64% 29.93 in 10.0 mi North 5.8 mph - 0.00 in   Overcast
10:53 PM 55.9 °F 50.0 °F 80% 29.94 in 7.0 mi WNW 12.7 mph 18.4 mph 0.01 in Rain Rain
11:08 PM 53.6 °F 50.0 °F 88% 30.04 in 10.0 mi WNW 12.7 mph 20.7 mph 0.00 in Rain Light Rain
11:53 PM 53.1 °F 52.0 °F 96% 29.95 in 10.0 mi NNW 8.1 mph - 0.04 in Rain Light Rain